TimeEST,TemperatureF,Dew PointF,Humidity,Sea Level PressureIn,VisibilityMPH,Wind Direction,Wind SpeedMPH,Gust SpeedMPH,PrecipitationIn,Events,Conditions,WindDirDegrees,DateUTC
12:56 AM,34.0,27.0,75,30.28,10.0,ESE,3.5,-,N/A,,Overcast,110,2013-02-23 05:56:00
1:03 AM,33.8,26.6,75,30.26,10.0,ESE,4.6,-,N/A,,Overcast,110,2013-02-23 06:03:00
1:56 AM,34.0,27.0,75,30.26,10.0,ESE,5.8,-,N/A,,Overcast,110,2013-02-23 06:56:00
2:56 AM,33.1,27.0,78,30.23,10.0,East,4.6,-,N/A,,Mostly Cloudy,90,2013-02-23 07:56:00
3:56 AM,33.1,28.0,82,30.21,10.0,East,5.8,-,0.00,,Overcast,80,2013-02-23 08:56:00
4:56 AM,33.1,28.0,82,30.20,10.0,East,4.6,-,N/A,,Overcast,100,2013-02-23 09:56:00
5:56 AM,33.1,28.9,85,30.19,10.0,East,4.6,-,N/A,,Overcast,80,2013-02-23 10:56:00
6:56 AM,34.0,28.9,82,30.18,7.0,East,5.8,-,N/A,,Overcast,90,2013-02-23 11:56:00
7:56 AM,34.0,30.0,85,30.17,10.0,East,6.9,-,N/A,,Overcast,80,2013-02-23 12:56:00
8:56 AM,35.1,30.9,85,30.15,8.0,East,6.9,-,N/A,,Overcast,90,2013-02-23 13:56:00
9:56 AM,36.0,32.0,86,30.12,7.0,East,6.9,-,N/A,,Overcast,90,2013-02-23 14:56:00
10:28 AM,35.6,33.8,93,30.08,2.5,Variable,6.9,-,0.00,,Light Drizzle,0,2013-02-23 15:28:00
10:56 AM,36.0,34.0,93,30.10,2.5,East,6.9,-,0.00,,Light Drizzle,90,2013-02-23 15:56:00
11:22 AM,37.4,35.6,93,30.07,0.8,East,6.9,-,0.00,,Light Drizzle,80,2013-02-23 16:22:00
11:29 AM,37.4,35.6,93,30.06,1.0,East,5.8,-,0.00,,Light Drizzle,90,2013-02-23 16:29:00
11:56 AM,37.0,35.1,93,30.06,1.0,East,9.2,-,0.02,,Light Drizzle,90,2013-02-23 16:56:00
12:56 PM,37.9,36.0,93,30.03,1.0,East,9.2,-,0.01,,Light Drizzle,100,2013-02-23 17:56:00
1:56 PM,39.0,37.0,93,30.01,1.0,East,8.1,-,0.02,,Light Drizzle,90,2013-02-23 18:56:00
2:56 PM,39.0,36.0,89,29.99,1.2,East,10.4,21.9,0.02,,Light Drizzle,90,2013-02-23 19:56:00
3:56 PM,37.9,36.0,93,29.98,1.5,East,11.5,-,0.03,,Light Drizzle,90,2013-02-23 20:56:00
4:56 PM,37.0,35.1,93,29.97,2.0,ENE,11.5,24.2,0.01,,Light Drizzle,70,2013-02-23 21:56:00
5:56 PM,36.0,33.1,89,29.95,2.0,East,11.5,19.6,0.01,,Light Drizzle,80,2013-02-23 22:56:00
6:56 PM,35.1,33.1,92,29.94,2.0,East,11.5,21.9,0.00,,Light Drizzle,90,2013-02-23 23:56:00
7:56 PM,35.1,33.1,92,29.91,1.5,East,13.8,19.6,0.01,,Light Drizzle,80,2013-02-24 00:56:00
8:56 PM,36.0,33.1,89,29.89,2.0,ENE,8.1,-,0.00,,Light Drizzle,70,2013-02-24 01:56:00
9:56 PM,36.0,34.0,93,29.86,1.5,ENE,6.9,-,0.00,,Light Drizzle,60,2013-02-24 02:56:00
10:56 PM,35.6,33.8,93,29.82,2.0,NNE,5.8,-,N/A,,Light Drizzle,30,2013-02-24 03:56:00
11:56 PM,36.0,34.0,93,29.81,3.0,North,5.8,-,0.00,,Light Drizzle,10,2013-02-24 04:56:00